Wetterdaten: Woche 26.02.18 - 04.03.18 (KW9)
Datum Zeit Temp. A. Pool Temp. Feuchte A. Luftdruck Regen Wind Richtung Sonnenschein ET UV Solar Taupunkt Windchill Windben Empfang
26.02.2018 00:00 -10,3 C 3,9 C 76 % 1024,8 hPa 0,0 l/m 17,7 km/h (3 Bft) O 0,00 h 0,000 mm 0,0 UV-I 0 W/m -13,7 C -21,3 C 23,1 km/h (4 Bft) 96,24 %
26.02.2018 01:00 -10,6 C 3,9 C 75 % 1024,6 hPa 0,0 l/m 17,7 km/h (3 Bft) O 0,00 h 0,025 mm 0,0 UV-I 0 W/m -14,1 C -21,7 C 23,1 km/h (4 Bft) 98,15 %
26.02.2018 02:00 -11,3 C 3,8 C 77 % 1024,2 hPa 0,0 l/m 13,6 km/h (3 Bft) O 0,00 h 0,026 mm 0,0 UV-I 0 W/m -14,5 C -19,4 C 17,6 km/h (3 Bft) 99,10 %
26.02.2018 03:00 -11,7 C 3,3 C 79 % 1024,0 hPa 0,0 l/m 11,0 km/h (2 Bft) O-NO 0,00 h 0,025 mm 0,0 UV-I 0 W/m -14,6 C -17,4 C 14,9 km/h (3 Bft) 97,39 %
26.02.2018 04:00 -12,1 C 3,3 C 82 % 1023,8 hPa 0,0 l/m 7,9 km/h (2 Bft) O-NO 0,00 h 0,000 mm 0,0 UV-I 0 W/m -14,6 C -14,2 C 10,5 km/h (2 Bft) 97,95 %
26.02.2018 05:00 -11,5 C 3,3 C 82 % 1023,8 hPa 0,0 l/m 10,5 km/h (2 Bft) O-NO 0,00 h 0,000 mm 0,0 UV-I 0 W/m -14,0 C -16,6 C 14,3 km/h (3 Bft) 98,61 %
26.02.2018 06:00 -11,4 C 3,3 C 84 % 1023,8 hPa 0,0 l/m 10,3 km/h (2 Bft) NO 0,00 h 0,000 mm 0,0 UV-I 5 W/m -13,6 C -16,3 C 13,8 km/h (3 Bft) 98,23 %
26.02.2018 07:00 -11,5 C 3,3 C 82 % 1023,7 hPa 0,0 l/m 10,4 km/h (2 Bft) O-NO 0,00 h 0,000 mm 0,0 UV-I 36 W/m -13,9 C -16,5 C 14,3 km/h (3 Bft) 96,93 %
26.02.2018 08:00 -11,1 C 3,3 C 79 % 1023,7 hPa 0,0 l/m 10,5 km/h (2 Bft) O-NO 0,58 h 0,026 mm 0,0 UV-I 157 W/m -13,9 C -16,1 C 14,0 km/h (3 Bft) 98,09 %
26.02.2018 09:00 -10,5 C 3,3 C 74 % 1023,3 hPa 0,0 l/m 11,2 km/h (2 Bft) O-NO 0,85 h 0,050 mm 0,5 UV-I 226 W/m -14,3 C -16,0 C 14,8 km/h (3 Bft) 96,87 %
26.02.2018 10:00 -10,2 C 3,3 C 74 % 1022,9 hPa 0,0 l/m 10,1 km/h (2 Bft) O-NO 0,03 h 0,051 mm 0,6 UV-I 208 W/m -13,9 C -14,6 C 13,9 km/h (3 Bft) 99,28 %
26.02.2018 11:00 -10,0 C 3,3 C 73 % 1022,6 hPa 0,0 l/m 8,7 km/h (2 Bft) O 0,08 h 0,051 mm 0,8 UV-I 245 W/m -14,0 C -13,1 C 12,0 km/h (2 Bft) 96,92 %
26.02.2018 12:00 -9,1 C 3,3 C 70 % 1022,0 hPa 0,0 l/m 6,6 km/h (2 Bft) O 0,82 h 0,051 mm 0,9 UV-I 394 W/m -13,6 C -10,7 C 9,9 km/h (2 Bft) 96,35 %
26.02.2018 13:00 -9,3 C 3,3 C 71 % 1021,6 hPa 0,0 l/m 5,3 km/h (1 Bft) O-NO 0,15 h 0,101 mm 0,6 UV-I 248 W/m -13,6 C -9,9 C 8,0 km/h (2 Bft) 98,28 %
26.02.2018 14:00 -9,1 C 3,3 C 74 % 1021,3 hPa 0,0 l/m 3,2 km/h (1 Bft) O-NO 0,40 h 0,051 mm 0,6 UV-I 235 W/m -12,8 C -9,1 C 5,1 km/h (1 Bft) 98,29 %
26.02.2018 15:00 -9,1 C 3,3 C 76 % 1020,9 hPa 0,0 l/m 1,4 km/h (1 Bft) S-SO 0,00 h 0,051 mm 0,0 UV-I 157 W/m -12,5 C -9,1 C 2,6 km/h (1 Bft) 98,99 %
26.02.2018 16:00 -8,9 C 3,3 C 73 % 1020,8 hPa 0,0 l/m 5,1 km/h (1 Bft) S-SO 0,00 h 0,025 mm 0,0 UV-I 77 W/m -12,9 C -9,4 C 7,1 km/h (2 Bft) 98,46 %
26.02.2018 17:00 -9,0 C 3,3 C 68 % 1020,7 hPa 0,0 l/m 5,8 km/h (1 Bft) S 0,02 h 0,026 mm 0,0 UV-I 18 W/m -13,7 C -9,5 C 8,7 km/h (2 Bft) 96,19 %
26.02.2018 18:00 -9,0 C 3,3 C 67 % 1020,7 hPa 0,0 l/m 7,5 km/h (2 Bft) SW 0,00 h 0,025 mm 0,0 UV-I 0 W/m -14,0 C -10,8 C 10,2 km/h (2 Bft) 99,46 %
26.02.2018 19:00 -9,1 C 3,3 C 69 % 1020,4 hPa 0,0 l/m 7,9 km/h (2 Bft) SW 0,00 h 0,026 mm 0,0 UV-I 0 W/m -13,8 C -11,2 C 11,4 km/h (2 Bft) 98,91 %
26.02.2018 20:00 -9,2 C 3,3 C 72 % 1020,1 hPa 0,0 l/m 7,8 km/h (2 Bft) W-SW 0,00 h 0,025 mm 0,0 UV-I 0 W/m -13,2 C -11,2 C 11,6 km/h (2 Bft) 96,31 %
26.02.2018 21:00 -9,3 C 3,3 C 79 % 1019,5 hPa 0,0 l/m 7,2 km/h (2 Bft) W 0,00 h 0,000 mm 0,0 UV-I 0 W/m -12,3 C -10,9 C 10,6 km/h (2 Bft) 99,22 %
26.02.2018 22:00 -9,3 C 3,3 C 83 % 1019,0 hPa 0,0 l/m 6,8 km/h (2 Bft) W 0,00 h 0,000 mm 0,0 UV-I 0 W/m -11,7 C -10,8 C 10,0 km/h (2 Bft) 98,15 %
26.02.2018 23:00 -9,3 C 3,3 C 86 % 1018,7 hPa 0,0 l/m 3,9 km/h (1 Bft) W 0,00 h 0,000 mm 0,0 UV-I 0 W/m -11,2 C -9,3 C 5,7 km/h (1 Bft) 97,38 %
27.02.2018 00:00 -9,0 C 3,3 C 86 % 1018,4 hPa 0,0 l/m 5,2 km/h (1 Bft) NO 0,00 h 0,000 mm 0,0 UV-I 0 W/m -11,0 C -10,0 C 7,1 km/h (2 Bft) 98,72 %
27.02.2018 01:00 -9,1 C 3,3 C 78 % 1018,0 hPa 0,0 l/m 13,2 km/h (3 Bft) NO 0,00 h 0,000 mm 0,0 UV-I 0 W/m -12,2 C -16,3 C 17,0 km/h (3 Bft) 97,76 %
27.02.2018 02:00 -9,6 C 3,3 C 76 % 1017,7 hPa 0,0 l/m 11,7 km/h (2 Bft) N-NO 0,00 h 0,025 mm 0,0 UV-I 0 W/m -13,0 C -15,6 C 15,5 km/h (3 Bft) 98,34 %
27.02.2018 03:00 -10,0 C 3,3 C 75 % 1017,4 hPa 0,0 l/m 12,0 km/h (2 Bft) NO 0,00 h 0,026 mm 0,0 UV-I 0 W/m -13,5 C -16,2 C 15,6 km/h (3 Bft) 95,99 %
27.02.2018 04:00 -10,4 C 3,3 C 75 % 1017,2 hPa 0,0 l/m 11,0 km/h (2 Bft) N-NO 0,00 h 0,025 mm 0,0 UV-I 0 W/m -14,0 C -15,8 C 14,4 km/h (3 Bft) 98,95 %
27.02.2018 05:00 -10,6 C 3,3 C 75 % 1017,3 hPa 0,0 l/m 10,8 km/h (2 Bft) N-NO 0,00 h 0,000 mm 0,0 UV-I 0 W/m -14,1 C -16,0 C 14,0 km/h (3 Bft) 97,96 %
27.02.2018 06:00 -10,8 C 3,3 C 76 % 1017,3 hPa 0,0 l/m 11,8 km/h (2 Bft) NO 0,00 h 0,000 mm 0,0 UV-I 6 W/m -14,3 C -17,2 C 15,0 km/h (3 Bft) 97,33 %
27.02.2018 07:00 -10,8 C 3,3 C 76 % 1017,3 hPa 0,0 l/m 9,8 km/h (2 Bft) NO 0,03 h 0,026 mm 0,0 UV-I 31 W/m -14,2 C -15,0 C 13,0 km/h (3 Bft) 97,44 %
27.02.2018 08:00 -10,6 C 3,3 C 75 % 1017,3 hPa 0,0 l/m 10,2 km/h (2 Bft) NO 0,17 h 0,025 mm 0,0 UV-I 112 W/m -14,2 C -15,2 C 13,5 km/h (3 Bft) 99,31 %
27.02.2018 09:00 -10,2 C 3,3 C 73 % 1017,2 hPa 0,0 l/m 9,2 km/h (2 Bft) NO 0,78 h 0,025 mm 0,5 UV-I 238 W/m -14,1 C -13,8 C 12,6 km/h (3 Bft) 98,47 %
27.02.2018 10:00 -9,7 C 3,3 C 70 % 1017,0 hPa 0,0 l/m 7,8 km/h (2 Bft) N-NO 0,45 h 0,051 mm 0,7 UV-I 271 W/m -14,1 C -12,1 C 10,8 km/h (2 Bft) 97,68 %
27.02.2018 11:00 -9,1 C 3,3 C 66 % 1016,8 hPa 0,0 l/m 6,3 km/h (2 Bft) N 0,57 h 0,076 mm 0,7 UV-I 304 W/m -14,3 C -10,3 C 9,3 km/h (2 Bft) 96,68 %
27.02.2018 12:00 -8,7 C 3,3 C 63 % 1016,7 hPa 0,0 l/m 8,6 km/h (2 Bft) N 0,90 h 0,077 mm 1,0 UV-I 412 W/m -14,4 C -11,6 C 12,4 km/h (3 Bft) 98,61 %
27.02.2018 13:00 -8,6 C 3,3 C 64 % 1016,6 hPa 0,0 l/m 7,1 km/h (2 Bft) N-NW 0,05 h 0,101 mm 0,5 UV-I 189 W/m -14,2 C -10,3 C 10,4 km/h (2 Bft) 98,32 %
27.02.2018 14:00 -8,7 C 3,3 C 66 % 1016,5 hPa 0,0 l/m 4,9 km/h (1 Bft) NW 0,00 h 0,051 mm 0,0 UV-I 138 W/m -13,8 C -9,1 C 7,1 km/h (2 Bft) 98,97 %
27.02.2018 15:00 -8,6 C 3,3 C 67 % 1016,8 hPa 0,0 l/m 7,7 km/h (2 Bft) N-NO 0,00 h 0,051 mm 0,0 UV-I 103 W/m -13,6 C -10,9 C 10,6 km/h (2 Bft) 97,05 %
27.02.2018 16:00 -8,9 C 3,3 C 66 % 1017,0 hPa 0,0 l/m 6,8 km/h (2 Bft) NO 0,00 h 0,025 mm 0,0 UV-I 48 W/m -14,1 C -10,3 C 9,1 km/h (2 Bft) 97,23 %
27.02.2018 17:00 -9,6 C 3,3 C 68 % 1017,4 hPa 0,0 l/m 3,2 km/h (1 Bft) O 0,03 h 0,026 mm 0,0 UV-I 13 W/m -14,3 C -9,6 C 4,5 km/h (1 Bft) 98,91 %
27.02.2018 18:00 -10,1 C 3,3 C 75 % 1017,8 hPa 0,0 l/m 1,9 km/h (1 Bft) O 0,00 h 0,000 mm 0,0 UV-I 0 W/m -13,7 C -10,1 C 2,8 km/h (1 Bft) 97,56 %
27.02.2018 19:00 -9,8 C 3,3 C 77 % 1017,8 hPa 0,0 l/m 5,4 km/h (1 Bft) S 0,00 h 0,000 mm 0,0 UV-I 0 W/m -13,0 C -10,0 C 7,7 km/h (2 Bft) 97,90 %
27.02.2018 20:00 -10,2 C 3,3 C 82 % 1017,9 hPa 0,0 l/m 4,0 km/h (1 Bft) S-SW 0,00 h 0,000 mm 0,0 UV-I 0 W/m -12,6 C -10,2 C 5,7 km/h (1 Bft) 99,38 %
27.02.2018 21:00 -10,4 C 3,3 C 85 % 1018,1 hPa 0,0 l/m 3,1 km/h (1 Bft) S-SW 0,00 h 0,000 mm 0,0 UV-I 0 W/m -12,5 C -10,4 C 4,3 km/h (1 Bft) 95,18 %
27.02.2018 22:00 -10,2 C 3,3 C 83 % 1018,3 hPa 0,0 l/m 3,9 km/h (1 Bft) S 0,00 h 0,000 mm 0,0 UV-I 0 W/m -12,5 C -10,2 C 5,4 km/h (1 Bft) 95,61 %
27.02.2018 23:00 -10,3 C 3,3 C 87 % 1018,5 hPa 0,0 l/m 3,4 km/h (1 Bft) S-SW 0,00 h 0,000 mm 0,0 UV-I 0 W/m -12,1 C -10,3 C 4,8 km/h (1 Bft) 97,95 %
28.02.2018 00:00 -10,6 C 3,3 C 88 % 1018,7 hPa 0,0 l/m 3,9 km/h (1 Bft) S-SW 0,00 h 0,000 mm 0,0 UV-I 0 W/m -12,2 C -10,6 C 5,4 km/h (1 Bft) 98,56 %
28.02.2018 01:00 -10,7 C 3,3 C 89 % 1018,8 hPa 0,0 l/m 2,7 km/h (1 Bft) SW 0,00 h 0,000 mm 0,0 UV-I 0 W/m -12,2 C -10,7 C 3,8 km/h (1 Bft) 98,29 %
28.02.2018 02:00 -11,1 C 3,3 C 89 % 1018,7 hPa 0,0 l/m 2,3 km/h (1 Bft) O-NO 0,00 h 0,000 mm 0,0 UV-I 0 W/m -12,6 C -11,1 C 3,4 km/h (1 Bft) 98,95 %
28.02.2018 03:00 -11,7 C 3,3 C 88 % 1018,7 hPa 0,0 l/m 4,1 km/h (1 Bft) NO 0,00 h 0,000 mm 0,0 UV-I 0 W/m -13,3 C -11,7 C 5,4 km/h (1 Bft) 97,88 %
28.02.2018 04:00 -11,4 C 3,3 C 86 % 1018,8 hPa 0,0 l/m 6,0 km/h (2 Bft) NO 0,00 h 0,000 mm 0,0 UV-I 0 W/m -13,4 C -12,1 C 8,0 km/h (2 Bft) 97,31 %
28.02.2018 05:00 -11,7 C 3,3 C 84 % 1019,2 hPa 0,0 l/m 9,2 km/h (2 Bft) O-NO 0,00 h 0,000 mm 0,0 UV-I 0 W/m -13,8 C -15,3 C 12,9 km/h (3 Bft) 96,67 %
28.02.2018 06:00 -12,2 C 3,3 C 83 % 1019,6 hPa 0,0 l/m 6,7 km/h (2 Bft) O-NO 0,00 h 0,000 mm 0,0 UV-I 7 W/m -14,4 C -12,9 C 9,5 km/h (2 Bft) 98,94 %
28.02.2018 07:00 -11,9 C 3,3 C 83 % 1019,9 hPa 0,0 l/m 9,6 km/h (2 Bft) O-NO 0,00 h 0,000 mm 0,0 UV-I 36 W/m -14,2 C -16,1 C 13,2 km/h (3 Bft) 96,65 %
28.02.2018 08:00 -11,6 C 3,3 C 85 % 1020,5 hPa 0,0 l/m 12,3 km/h (3 Bft) O-NO 0,65 h 0,025 mm 0,0 UV-I 170 W/m -13,6 C -18,5 C 16,6 km/h (3 Bft) 98,12 %
28.02.2018 09:00 -10,7 C 3,3 C 80 % 1020,8 hPa 0,0 l/m 16,8 km/h (3 Bft) O 1,00 h 0,051 mm 0,6 UV-I 345 W/m -13,5 C -21,2 C 21,2 km/h (4 Bft) 98,22 %
28.02.2018 10:00 -9,9 C 3,2 C 74 % 1020,9 hPa 0,0 l/m 17,7 km/h (3 Bft) O 1,00 h 0,076 mm 0,9 UV-I 455 W/m -13,6 C -20,8 C 22,5 km/h (4 Bft) 96,47 %
28.02.2018 11:00 -9,1 C 3,3 C 69 % 1021,2 hPa 0,0 l/m 17,0 km/h (3 Bft) O 1,00 h 0,102 mm 1,1 UV-I 524 W/m -13,8 C -19,3 C 22,0 km/h (4 Bft) 95,83 %
28.02.2018 12:00 -8,4 C 3,3 C 63 % 1021,1 hPa 0,0 l/m 17,9 km/h (3 Bft) O-NO 1,00 h 0,127 mm 1,2 UV-I 537 W/m -14,1 C -19,1 C 23,0 km/h (4 Bft) 97,67 %
28.02.2018 13:00 -7,7 C 3,3 C 60 % 1020,8 hPa 0,0 l/m 19,3 km/h (3 Bft) O-NO 1,00 h 0,152 mm 1,0 UV-I 495 W/m -14,1 C -19,1 C 24,5 km/h (4 Bft) 98,11 %
28.02.2018 14:00 -7,3 C 3,3 C 62 % 1020,6 hPa 0,0 l/m 19,8 km/h (4 Bft) O 1,00 h 0,153 mm 0,7 UV-I 401 W/m -13,2 C -18,9 C 25,3 km/h (4 Bft) 97,84 %
28.02.2018 15:00 -7,3 C 3,3 C 63 % 1020,8 hPa 0,0 l/m 18,5 km/h (3 Bft) O 1,00 h 0,127 mm 0,5 UV-I 272 W/m -13,1 C -18,1 C 23,8 km/h (4 Bft) 97,04 %
28.02.2018 16:00 -7,8 C 3,3 C 63 % 1020,9 hPa 0,0 l/m 18,1 km/h (3 Bft) O 0,77 h 0,101 mm 0,0 UV-I 125 W/m -13,5 C -18,5 C 23,7 km/h (4 Bft) 96,10 %
28.02.2018 17:00 -8,8 C 3,3 C 68 % 1020,8 hPa 0,0 l/m 18,5 km/h (3 Bft) O 0,45 h 0,051 mm 0,0 UV-I 27 W/m -13,6 C -20,0 C 24,4 km/h (4 Bft) 99,21 %
28.02.2018 18:00 -9,6 C 3,3 C 71 % 1021,2 hPa 0,0 l/m 20,1 km/h (4 Bft) O 0,00 h 0,026 mm 0,0 UV-I 0 W/m -13,8 C -22,0 C 26,4 km/h (4 Bft) 98,06 %
28.02.2018 19:00 -10,1 C 3,3 C 72 % 1021,4 hPa 0,0 l/m 19,8 km/h (4 Bft) O-NO 0,00 h 0,025 mm 0,0 UV-I 0 W/m -14,1 C -22,4 C 25,7 km/h (4 Bft) 99,24 %
28.02.2018 20:00 -10,4 C 3,3 C 73 % 1021,1 hPa 0,0 l/m 19,7 km/h (3 Bft) O 0,00 h 0,025 mm 0,0 UV-I 0 W/m -14,4 C -22,9 C 25,1 km/h (4 Bft) 95,80 %
28.02.2018 21:00 -10,7 C 3,3 C 74 % 1020,6 hPa 0,0 l/m 22,3 km/h (4 Bft) O 0,00 h 0,026 mm 0,0 UV-I 0 W/m -14,4 C -24,4 C 28,9 km/h (5 Bft) 98,37 %
28.02.2018 22:00 -10,8 C 3,3 C 75 % 1019,9 hPa 0,0 l/m 25,0 km/h (4 Bft) O-NO 0,00 h 0,025 mm 0,0 UV-I 0 W/m -14,3 C -26,2 C 32,0 km/h (5 Bft) 97,87 %
28.02.2018 23:00 -10,8 C 3,3 C 77 % 1019,0 hPa 0,0 l/m 30,2 km/h (5 Bft) O-NO 0,00 h 0,026 mm 0,0 UV-I 0 W/m -14,0 C -28,6 C 39,6 km/h (6 Bft) 99,74 %
01.03.2018 00:00 -11,1 C 3,2 C 79 % 1018,4 hPa 0,0 l/m 27,6 km/h (4 Bft) O 0,00 h 0,000 mm 0,0 UV-I 0 W/m -14,0 C -27,8 C 35,6 km/h (5 Bft) 97,02 %
01.03.2018 01:00 -11,3 C 2,9 C 79 % 1017,4 hPa 0,0 l/m 29,3 km/h (5 Bft) O 0,00 h 0,025 mm 0,0 UV-I 0 W/m -14,1 C -28,9 C 38,2 km/h (5 Bft) 96,71 %
01.03.2018 02:00 -11,5 C 2,8 C 80 % 1016,5 hPa 0,0 l/m 26,8 km/h (4 Bft) O 0,00 h 0,026 mm 0,0 UV-I 0 W/m -14,2 C -28,0 C 34,8 km/h (5 Bft) 97,87 %
01.03.2018 03:00 -11,9 C 2,8 C 82 % 1015,4 hPa 0,0 l/m 23,0 km/h (4 Bft) O-NO 0,00 h 0,025 mm 0,0 UV-I 0 W/m -14,4 C -26,7 C 30,8 km/h (5 Bft) 97,77 %
01.03.2018 04:00 -12,0 C 2,8 C 82 % 1014,8 hPa 0,0 l/m 26,9 km/h (4 Bft) O 0,00 h 0,026 mm 0,0 UV-I 0 W/m -14,4 C -28,8 C 36,6 km/h (5 Bft) 97,83 %
01.03.2018 05:00 -12,1 C 2,8 C 82 % 1014,0 hPa 0,0 l/m 26,3 km/h (4 Bft) O 0,00 h 0,025 mm 0,0 UV-I 0 W/m -14,5 C -28,6 C 35,5 km/h (5 Bft) 96,92 %
01.03.2018 06:00 -12,3 C 2,8 C 82 % 1013,3 hPa 0,0 l/m 23,6 km/h (4 Bft) O 0,07 h 0,025 mm 0,0 UV-I 9 W/m -14,7 C -27,5 C 31,5 km/h (5 Bft) 97,77 %
01.03.2018 07:00 -12,3 C 2,8 C 82 % 1012,9 hPa 0,0 l/m 23,4 km/h (4 Bft) O 0,55 h 0,026 mm 0,0 UV-I 69 W/m -14,7 C -27,4 C 31,3 km/h (5 Bft) 98,03 %
01.03.2018 08:00 -11,4 C 2,8 C 80 % 1012,3 hPa 0,0 l/m 25,1 km/h (4 Bft) O 0,83 h 0,025 mm 0,0 UV-I 187 W/m -14,1 C -27,2 C 33,7 km/h (5 Bft) 98,46 %
01.03.2018 09:00 -10,2 C 2,8 C 78 % 1011,6 hPa 0,0 l/m 20,8 km/h (4 Bft) O 0,98 h 0,051 mm 0,6 UV-I 332 W/m -13,3 C -23,1 C 27,5 km/h (4 Bft) 99,04 %
01.03.2018 10:00 -8,9 C 2,8 C 74 % 1010,8 hPa 0,0 l/m 25,9 km/h (4 Bft) O 1,00 h 0,076 mm 1,0 UV-I 463 W/m -12,6 C -24,2 C 33,5 km/h (5 Bft) 98,78 %
01.03.2018 11:00 -7,6 C 2,8 C 72 % 1010,5 hPa 0,0 l/m 23,2 km/h (4 Bft) O 1,00 h 0,127 mm 1,2 UV-I 503 W/m -11,7 C -21,0 C 30,3 km/h (5 Bft) 98,10 %
01.03.2018 12:00 -5,7 C 2,8 C 68 % 1009,8 hPa 0,0 l/m 22,4 km/h (4 Bft) O 1,00 h 0,153 mm 1,3 UV-I 526 W/m -10,7 C -18,1 C 29,6 km/h (5 Bft) 99,17 %
01.03.2018 13:00 -5,1 C 2,8 C 65 % 1008,9 hPa 0,0 l/m 24,0 km/h (4 Bft) O 0,65 h 0,177 mm 1,0 UV-I 343 W/m -10,5 C -18,0 C 31,2 km/h (5 Bft) 98,29 %
01.03.2018 14:00 -4,6 C 2,8 C 65 % 1008,7 hPa 0,0 l/m 22,5 km/h (4 Bft) O 0,82 h 0,127 mm 0,8 UV-I 329 W/m -10,2 C -16,7 C 29,8 km/h (5 Bft) 98,67 %
01.03.2018 15:00 -4,5 C 2,8 C 65 % 1008,3 hPa 0,0 l/m 24,3 km/h (4 Bft) O 0,98 h 0,127 mm 0,5 UV-I 270 W/m -10,0 C -17,4 C 31,7 km/h (5 Bft) 97,52 %
01.03.2018 16:00 -5,0 C 2,8 C 67 % 1008,0 hPa 0,0 l/m 24,6 km/h (4 Bft) O 0,35 h 0,127 mm 0,0 UV-I 93 W/m -10,0 C -18,2 C 32,3 km/h (5 Bft) 96,02 %
01.03.2018 17:00 -6,0 C 2,8 C 72 % 1008,0 hPa 0,0 l/m 23,8 km/h (4 Bft) O 0,12 h 0,077 mm 0,0 UV-I 19 W/m -10,2 C -19,2 C 31,5 km/h (5 Bft) 98,98 %
01.03.2018 18:00 -6,9 C 2,8 C 76 % 1008,1 hPa 0,0 l/m 26,2 km/h (4 Bft) O 0,00 h 0,050 mm 0,0 UV-I 0 W/m -10,4 C -21,5 C 34,4 km/h (5 Bft) 98,19 %
01.03.2018 19:00 -7,5 C 2,8 C 79 % 1007,9 hPa 0,0 l/m 27,4 km/h (4 Bft) O 0,00 h 0,026 mm 0,0 UV-I 0 W/m -10,5 C -22,9 C 36,7 km/h (5 Bft) 98,89 %
01.03.2018 20:00 -7,8 C 2,8 C 81 % 1007,6 hPa 0,0 l/m 24,2 km/h (4 Bft) O 0,00 h 0,025 mm 0,0 UV-I 0 W/m -10,5 C -21,8 C 31,3 km/h (5 Bft) 96,04 %
01.03.2018 21:00 -7,8 C 2,8 C 83 % 1007,1 hPa 0,0 l/m 25,1 km/h (4 Bft) O 0,00 h 0,026 mm 0,0 UV-I 0 W/m -10,2 C -22,2 C 32,5 km/h (5 Bft) 97,91 %
01.03.2018 22:00 -7,6 C 2,8 C 83 % 1006,4 hPa 0,0 l/m 25,9 km/h (4 Bft) O 0,00 h 0,025 mm 0,0 UV-I 0 W/m -10,0 C -22,4 C 34,8 km/h (5 Bft) 98,63 %
01.03.2018 23:00 -7,7 C 2,8 C 84 % 1005,7 hPa 0,0 l/m 26,2 km/h (4 Bft) O-NO 0,00 h 0,025 mm 0,0 UV-I 0 W/m -9,9 C -22,6 C 33,6 km/h (5 Bft) 98,87 %
02.03.2018 00:00 -7,7 C 3,3 C 84 % 1005,1 hPa 0,0 l/m 25,0 km/h (4 Bft) O-NO 0,00 h 0,000 mm 0,0 UV-I 0 W/m -9,9 C -22,1 C 31,8 km/h (5 Bft) 96,97 %
02.03.2018 01:00 -7,8 C 3,3 C 85 % 1004,2 hPa 0,0 l/m 22,1 km/h (4 Bft) O-NO 0,00 h 0,025 mm 0,0 UV-I 0 W/m -9,8 C -20,8 C 28,6 km/h (4 Bft) 97,74 %
02.03.2018 02:00 -7,9 C 3,3 C 86 % 1003,2 hPa 0,0 l/m 23,5 km/h (4 Bft) O 0,00 h 0,026 mm 0,0 UV-I 0 W/m -9,8 C -21,7 C 31,1 km/h (5 Bft) 98,81 %
02.03.2018 03:00 -8,0 C 3,3 C 87 % 1002,0 hPa 0,0 l/m 23,5 km/h (4 Bft) O 0,00 h 0,025 mm 0,0 UV-I 0 W/m -9,8 C -21,7 C 30,4 km/h (5 Bft) 98,45 %
02.03.2018 04:00 -7,9 C 3,3 C 87 % 1001,4 hPa 0,0 l/m 24,1 km/h (4 Bft) O 0,00 h 0,026 mm 0,0 UV-I 0 W/m -9,7 C -21,9 C 31,7 km/h (5 Bft) 98,22 %
02.03.2018 05:00 -8,0 C 3,3 C 88 % 1001,0 hPa 0,0 l/m 25,1 km/h (4 Bft) O-NO 0,00 h 0,025 mm 0,0 UV-I 0 W/m -9,6 C -22,5 C 32,7 km/h (5 Bft) 96,18 %
02.03.2018 06:00 -8,0 C 3,3 C 89 % 1000,5 hPa 0,0 l/m 25,6 km/h (4 Bft) O-NO 0,00 h 0,025 mm 0,0 UV-I 5 W/m -9,5 C -22,8 C 33,0 km/h (5 Bft) 98,93 %
02.03.2018 07:00 -7,9 C 3,3 C 89 % 1000,3 hPa 0,0 l/m 24,7 km/h (4 Bft) O 0,00 h 0,026 mm 0,0 UV-I 18 W/m -9,4 C -22,2 C 33,1 km/h (5 Bft) 98,07 %
02.03.2018 08:00 -7,7 C 3,3 C 89 % 999,9 hPa 0,0 l/m 23,4 km/h (4 Bft) O 0,00 h 0,025 mm 0,0 UV-I 66 W/m -9,3 C -21,3 C 31,0 km/h (5 Bft) 98,82 %
02.03.2018 09:00 -7,1 C 3,3 C 86 % 999,1 hPa 0,0 l/m 24,0 km/h (4 Bft) O 0,47 h 0,026 mm 0,6 UV-I 228 W/m -9,1 C -20,8 C 32,1 km/h (5 Bft) 95,63 %
02.03.2018 10:00 -6,4 C 3,1 C 82 % 998,3 hPa 0,0 l/m 25,5 km/h (4 Bft) O 0,77 h 0,076 mm 0,9 UV-I 333 W/m -9,0 C -20,5 C 34,0 km/h (5 Bft) 96,71 %
02.03.2018 11:00 -5,8 C 2,8 C 81 % 997,9 hPa 0,0 l/m 24,2 km/h (4 Bft) O 0,97 h 0,101 mm 1,1 UV-I 460 W/m -8,5 C -19,0 C 32,1 km/h (5 Bft) 98,43 %
02.03.2018 12:00 -4,8 C 2,8 C 78 % 997,1 hPa 0,0 l/m 23,6 km/h (4 Bft) O 0,98 h 0,127 mm 1,3 UV-I 506 W/m -8,0 C -17,5 C 30,8 km/h (5 Bft) 97,98 %
02.03.2018 13:00 -3,9 C 2,8 C 76 % 996,4 hPa 0,0 l/m 19,6 km/h (3 Bft) O-SO 1,00 h 0,153 mm 1,1 UV-I 477 W/m -7,5 C -14,4 C 26,0 km/h (4 Bft) 99,04 %
02.03.2018 14:00 -4,1 C 2,8 C 77 % 996,0 hPa 0,0 l/m 18,4 km/h (3 Bft) O 0,25 h 0,152 mm 0,6 UV-I 214 W/m -7,5 C -13,9 C 24,4 km/h (4 Bft) 98,11 %
02.03.2018 15:00 -4,2 C 3,3 C 79 % 996,3 hPa 0,0 l/m 18,9 km/h (3 Bft) O 0,33 h 0,076 mm 0,5 UV-I 168 W/m -7,3 C -14,4 C 24,9 km/h (4 Bft) 98,47 %
02.03.2018 16:00 -4,3 C 3,3 C 80 % 996,8 hPa 0,0 l/m 19,4 km/h (3 Bft) O 0,22 h 0,077 mm 0,0 UV-I 103 W/m -7,2 C -14,7 C 25,6 km/h (4 Bft) 97,80 %
02.03.2018 17:00 -4,7 C 3,3 C 82 % 999,4 hPa 0,0 l/m 8,5 km/h (2 Bft) O 0,00 h 0,050 mm 0,0 UV-I 18 W/m -7,3 C -7,5 C 12,7 km/h (3 Bft) 96,18 %
02.03.2018 18:00 -4,7 C 3,3 C 83 % 1001,3 hPa 0,0 l/m 3,8 km/h (1 Bft) S-SO 0,00 h 0,026 mm 0,0 UV-I 0 W/m -7,2 C -4,8 C 5,6 km/h (1 Bft) 98,27 %
02.03.2018 19:00 -4,7 C 3,3 C 84 % 1001,4 hPa 0,0 l/m 6,9 km/h (2 Bft) O-SO 0,00 h 0,000 mm 0,0 UV-I 0 W/m -7,1 C -5,8 C 9,7 km/h (2 Bft) 98,58 %
02.03.2018 20:00 -4,7 C 3,3 C 85 % 1001,5 hPa 0,0 l/m 6,1 km/h (2 Bft) O 0,00 h 0,000 mm 0,0 UV-I 0 W/m -6,9 C -5,2 C 8,9 km/h (2 Bft) 97,18 %
02.03.2018 21:00 -4,7 C 3,3 C 85 % 1001,7 hPa 0,0 l/m 6,0 km/h (2 Bft) O-NO 0,00 h 0,000 mm 0,0 UV-I 0 W/m -6,9 C -5,0 C 8,0 km/h (2 Bft) 97,88 %
02.03.2018 22:00 -4,8 C 3,3 C 85 % 1001,6 hPa 0,0 l/m 5,9 km/h (2 Bft) O-NO 0,00 h 0,000 mm 0,0 UV-I 0 W/m -6,9 C -5,0 C 8,1 km/h (2 Bft) 98,00 %
02.03.2018 23:00 -4,8 C 3,3 C 86 % 1001,5 hPa 0,0 l/m 6,7 km/h (2 Bft) O 0,00 h 0,000 mm 0,0 UV-I 0 W/m -6,8 C -5,6 C 10,0 km/h (2 Bft) 98,96 %
03.03.2018 00:00 -4,9 C 3,3 C 87 % 1001,6 hPa 0,0 l/m 5,3 km/h (1 Bft) O 0,00 h 0,000 mm 0,0 UV-I 0 W/m -6,7 C -5,0 C 7,2 km/h (2 Bft) 97,09 %
03.03.2018 01:00 -5,2 C 3,3 C 91 % 1001,7 hPa 0,0 l/m 6,1 km/h (2 Bft) O 0,00 h 0,000 mm 0,0 UV-I 0 W/m -6,4 C -5,5 C 8,3 km/h (2 Bft) 97,62 %
03.03.2018 02:00 -5,3 C 3,3 C 93 % 1002,0 hPa 0,0 l/m 4,8 km/h (1 Bft) O-NO 0,00 h 0,000 mm 0,0 UV-I 0 W/m -6,3 C -5,4 C 6,4 km/h (2 Bft) 98,03 %
03.03.2018 03:00 -5,3 C 3,3 C 93 % 1002,2 hPa 0,0 l/m 4,8 km/h (1 Bft) O-NO 0,00 h 0,000 mm 0,0 UV-I 0 W/m -6,3 C -5,4 C 6,3 km/h (2 Bft) 99,36 %
03.03.2018 04:00 -5,3 C 3,3 C 93 % 1002,0 hPa 0,0 l/m 7,1 km/h (2 Bft) O-NO 0,00 h 0,000 mm 0,0 UV-I 0 W/m -6,3 C -6,4 C 9,8 km/h (2 Bft) 97,10 %
03.03.2018 05:00 -5,4 C 3,3 C 93 % 1001,6 hPa 0,0 l/m 7,3 km/h (2 Bft) O-NO 0,00 h 0,000 mm 0,0 UV-I 0 W/m -6,4 C -6,7 C 10,2 km/h (2 Bft) 97,07 %
03.03.2018 06:00 -5,4 C 3,3 C 93 % 1001,2 hPa 0,0 l/m 7,1 km/h (2 Bft) O-NO 0,00 h 0,000 mm 0,0 UV-I 6 W/m -6,3 C -6,4 C 9,8 km/h (2 Bft) 97,63 %
03.03.2018 07:00 -5,3 C 3,3 C 93 % 1000,8 hPa 0,0 l/m 8,9 km/h (2 Bft) O-NO 0,00 h 0,000 mm 0,0 UV-I 31 W/m -6,3 C -8,1 C 12,3 km/h (3 Bft) 98,60 %
03.03.2018 08:00 -5,1 C 3,3 C 93 % 1000,5 hPa 0,0 l/m 11,8 km/h (2 Bft) O-NO 0,00 h 0,000 mm 0,0 UV-I 125 W/m -6,1 C -10,6 C 15,2 km/h (3 Bft) 97,71 %
03.03.2018 09:00 -4,5 C 3,3 C 92 % 1000,3 hPa 0,0 l/m 13,6 km/h (3 Bft) O-NO 0,15 h 0,025 mm 0,0 UV-I 210 W/m -5,7 C -11,4 C 17,3 km/h (3 Bft) 96,97 %
03.03.2018 10:00 -3,7 C 3,3 C 89 % 999,9 hPa 0,0 l/m 14,2 km/h (3 Bft) O-NO 0,63 h 0,077 mm 0,5 UV-I 296 W/m -5,2 C -10,8 C 18,1 km/h (3 Bft) 97,20 %
03.03.2018 11:00 -3,0 C 3,3 C 86 % 999,6 hPa 0,0 l/m 15,7 km/h (3 Bft) O-NO 0,93 h 0,101 mm 0,7 UV-I 411 W/m -4,9 C -10,9 C 20,1 km/h (4 Bft) 99,57 %
03.03.2018 12:00 -2,5 C 3,3 C 85 % 998,9 hPa 0,0 l/m 17,7 km/h (3 Bft) O-NO 0,52 h 0,127 mm 0,8 UV-I 358 W/m -4,7 C -11,5 C 22,7 km/h (4 Bft) 98,07 %
03.03.2018 13:00 -1,8 C 3,3 C 83 % 998,3 hPa 0,0 l/m 18,4 km/h (3 Bft) O-NO 1,00 h 0,127 mm 1,1 UV-I 476 W/m -4,3 C -11,1 C 23,2 km/h (4 Bft) 98,40 %
03.03.2018 14:00 -1,3 C 3,3 C 82 % 998,2 hPa 0,0 l/m 17,1 km/h (3 Bft) O-NO 0,97 h 0,178 mm 0,8 UV-I 315 W/m -4,0 C -9,7 C 21,8 km/h (4 Bft) 96,31 %
03.03.2018 15:00 -1,7 C 3,3 C 81 % 998,6 hPa 0,0 l/m 18,5 km/h (3 Bft) O-NO 0,05 h 0,127 mm 0,5 UV-I 176 W/m -4,5 C -10,9 C 23,8 km/h (4 Bft) 96,32 %
03.03.2018 16:00 -2,1 C 3,3 C 80 % 999,1 hPa 0,0 l/m 17,1 km/h (3 Bft) O 0,00 h 0,076 mm 0,0 UV-I 92 W/m -5,1 C -10,7 C 22,4 km/h (4 Bft) 98,05 %
03.03.2018 17:00 -2,7 C 3,3 C 79 % 999,7 hPa 0,0 l/m 17,9 km/h (3 Bft) O 0,03 h 0,051 mm 0,0 UV-I 22 W/m -5,7 C -11,8 C 23,1 km/h (4 Bft) 98,57 %
03.03.2018 18:00 -3,2 C 3,3 C 79 % 1000,5 hPa 0,0 l/m 13,8 km/h (3 Bft) O 0,00 h 0,025 mm 0,0 UV-I 3 W/m -6,3 C -9,8 C 18,2 km/h (3 Bft) 97,76 %
03.03.2018 19:00 -3,4 C 3,3 C 80 % 1001,3 hPa 0,0 l/m 13,1 km/h (3 Bft) O 0,00 h 0,026 mm 0,0 UV-I 0 W/m -6,4 C -9,6 C 17,4 km/h (3 Bft) 96,55 %
03.03.2018 20:00 -3,4 C 3,3 C 78 % 1002,3 hPa 0,0 l/m 13,9 km/h (3 Bft) O 0,00 h 0,025 mm 0,0 UV-I 0 W/m -6,7 C -10,2 C 18,2 km/h (3 Bft) 97,61 %
03.03.2018 21:00 -3,7 C 3,3 C 75 % 1003,3 hPa 0,0 l/m 11,0 km/h (2 Bft) O-SO 0,00 h 0,026 mm 0,0 UV-I 0 W/m -7,5 C -8,3 C 15,1 km/h (3 Bft) 98,97 %
03.03.2018 22:00 -3,7 C 3,3 C 75 % 1004,0 hPa 0,0 l/m 6,7 km/h (2 Bft) O-SO 0,00 h 0,025 mm 0,0 UV-I 0 W/m -7,5 C -4,5 C 9,9 km/h (2 Bft) 97,60 %
03.03.2018 23:00 -3,6 C 3,3 C 74 % 1004,4 hPa 0,0 l/m 7,3 km/h (2 Bft) O-SO 0,00 h 0,000 mm 0,0 UV-I 0 W/m -7,5 C -4,7 C 12,9 km/h (3 Bft) 98,90 %
04.03.2018 00:00 -3,6 C 3,3 C 73 % 1004,9 hPa 0,0 l/m 9,7 km/h (2 Bft) O 0,00 h 0,025 mm 0,0 UV-I 0 W/m -7,8 C -7,1 C 14,6 km/h (3 Bft) 98,10 %
04.03.2018 01:00 -3,7 C 3,3 C 70 % 1005,1 hPa 0,0 l/m 9,8 km/h (2 Bft) O 0,00 h 0,025 mm 0,0 UV-I 0 W/m -8,3 C -7,2 C 15,8 km/h (3 Bft) 98,39 %
04.03.2018 02:00 -3,9 C 3,3 C 69 % 1005,1 hPa 0,0 l/m 10,5 km/h (2 Bft) O 0,00 h 0,025 mm 0,0 UV-I 0 W/m -8,7 C -8,2 C 16,6 km/h (3 Bft) 98,83 %
04.03.2018 03:00 -4,3 C 3,3 C 71 % 1005,2 hPa 0,0 l/m 10,6 km/h (2 Bft) O-NO 0,00 h 0,025 mm 0,0 UV-I 0 W/m -8,8 C -8,7 C 15,3 km/h (3 Bft) 98,24 %
04.03.2018 04:00 -4,8 C 3,3 C 75 % 1005,7 hPa 0,0 l/m 8,3 km/h (2 Bft) O 0,00 h 0,025 mm 0,0 UV-I 0 W/m -8,5 C -6,9 C 12,9 km/h (3 Bft) 97,00 %
04.03.2018 05:00 -5,7 C 3,3 C 88 % 1006,0 hPa 0,0 l/m 7,7 km/h (2 Bft) O-NO 0,00 h 0,025 mm 0,0 UV-I 0 W/m -7,4 C -7,3 C 12,6 km/h (3 Bft) 98,47 %
04.03.2018 06:00 -6,1 C 3,3 C 91 % 1006,1 hPa 0,0 l/m 10,5 km/h (2 Bft) O-NO 0,00 h 0,000 mm 0,0 UV-I 7 W/m -7,3 C -10,5 C 15,3 km/h (3 Bft) 98,76 %
04.03.2018 07:00 -6,0 C 3,3 C 91 % 1006,3 hPa 0,0 l/m 11,2 km/h (2 Bft) O-NO 0,00 h 0,000 mm 0,0 UV-I 20 W/m -7,3 C -11,2 C 16,0 km/h (3 Bft) 97,73 %
04.03.2018 08:00 -5,6 C 3,3 C 88 % 1006,4 hPa 0,0 l/m 12,2 km/h (2 Bft) O-NO 0,00 h 0,000 mm 0,0 UV-I 107 W/m -7,3 C -11,6 C 18,9 km/h (3 Bft) 98,68 %
04.03.2018 09:00 -4,7 C 3,3 C 84 % 1006,1 hPa 0,0 l/m 14,0 km/h (3 Bft) O-NO 0,87 h 0,025 mm 0,8 UV-I 391 W/m -7,0 C -11,9 C 18,0 km/h (3 Bft) 98,66 %
04.03.2018 10:00 -3,7 C 3,3 C 80 % 1006,1 hPa 0,0 l/m 11,8 km/h (2 Bft) O-NO 0,87 h 0,079 mm 1,1 UV-I 451 W/m -6,5 C -9,0 C 15,6 km/h (3 Bft) 97,97 %
04.03.2018 11:00 -2,5 C 3,3 C 77 % 1005,6 hPa 0,2 l/m 14,6 km/h (3 Bft) O-NO 1,07 h 0,152 mm 1,5 UV-I 542 W/m -5,9 C -9,8 C 18,7 km/h (3 Bft) 96,25 %
04.03.2018 12:00 -1,0 C 3,3 C 75 % 1005,0 hPa 0,0 l/m 13,5 km/h (3 Bft) O 1,00 h 0,178 mm 1,6 UV-I 552 W/m -4,9 C -7,2 C 17,1 km/h (3 Bft) 96,69 %
04.03.2018 13:00 0,5 C 3,3 C 74 % 1004,2 hPa 0,0 l/m 14,1 km/h (3 Bft) O-NO 1,00 h 0,203 mm 1,4 UV-I 512 W/m -3,6 C -5,7 C 18,4 km/h (3 Bft) 96,17 %
04.03.2018 14:00 1,3 C 3,3 C 73 % 1003,3 hPa 0,0 l/m 15,9 km/h (3 Bft) O-NO 1,00 h 0,204 mm 1,0 UV-I 426 W/m -3,1 C -5,9 C 20,6 km/h (4 Bft) 96,01 %
04.03.2018 15:00 1,8 C 3,3 C 72 % 1002,7 hPa 0,0 l/m 16,4 km/h (3 Bft) O-NO 1,00 h 0,177 mm 0,6 UV-I 299 W/m -2,8 C -5,5 C 20,8 km/h (4 Bft) 96,78 %
04.03.2018 16:00 1,4 C 3,3 C 72 % 1002,2 hPa 0,2 l/m 17,6 km/h (3 Bft) O 0,97 h 0,153 mm 0,0 UV-I 150 W/m -3,0 C -6,5 C 22,6 km/h (4 Bft) 96,33 %
04.03.2018 17:00 0,3 C 3,3 C 73 % 1001,8 hPa 0,0 l/m 18,9 km/h (3 Bft) O 0,52 h 0,076 mm 0,0 UV-I 32 W/m -3,9 C -8,7 C 25,0 km/h (4 Bft) 99,03 %
04.03.2018 18:00 -0,6 C 3,3 C 75 % 1001,5 hPa 0,0 l/m 21,3 km/h (4 Bft) O-NO 0,00 h 0,051 mm 0,0 UV-I 4 W/m -4,5 C -10,9 C 27,4 km/h (4 Bft) 98,02 %
04.03.2018 19:00 -0,8 C 3,3 C 77 % 1001,3 hPa 0,0 l/m 18,7 km/h (3 Bft) O-NO 0,00 h 0,025 mm 0,0 UV-I 0 W/m -4,3 C -10,0 C 23,9 km/h (4 Bft) 98,26 %
04.03.2018 20:00 -1,1 C 3,3 C 78 % 1001,1 hPa 0,0 l/m 18,9 km/h (3 Bft) O 0,00 h 0,026 mm 0,0 UV-I 0 W/m -4,3 C -10,4 C 25,0 km/h (4 Bft) 95,70 %
04.03.2018 21:00 -1,6 C 3,3 C 81 % 1000,9 hPa 0,0 l/m 18,1 km/h (3 Bft) O-NO 0,00 h 0,025 mm 0,0 UV-I 0 W/m -4,4 C -10,7 C 23,3 km/h (4 Bft) 98,74 %
04.03.2018 22:00 -1,9 C 3,3 C 82 % 1001,0 hPa 0,0 l/m 14,6 km/h (3 Bft) O 0,00 h 0,025 mm 0,0 UV-I 0 W/m -4,5 C -8,9 C 18,9 km/h (3 Bft) 97,76 %
04.03.2018 23:00 -2,3 C 3,3 C 84 % 1000,9 hPa 0,0 l/m 11,7 km/h (2 Bft) O-NO 0,00 h 0,026 mm 0,0 UV-I 0 W/m -4,6 C -7,3 C 15,5 km/h (3 Bft) 98,37 %
Min-Datum _ 01.03.18 27.02.18 28.02.18 02.03.18 - 26.02.18 - - - - - 27.02.18 01.03.18 26.02.18 26.02.18
_ Min-Zeit 07:01 23:53 13:05 14:00 - 12:27 - - - - - 11:32 05:32 12:27 09:12
Minimum _ -12,5 C 2,8 C 58 % 995,8 hPa - 0,0 km/h (0 Bft) - - - - - -15,1 C -32,9 C 0,0 km/h (0 Bft) 9,09 %
Max-Datum _ 04.03.18 26.02.18 03.03.18 26.02.18 04.03.18 01.03.18 - 01.03.18 04.03.18 04.03.18 03.03.18 04.03.18 04.03.18 28.02.18 26.02.18
_ Max-Zeit 14:59 00:00 02:12 00:00 11:48 15:56 - 15:55 14:01 11:49 13:24 14:59 14:37 23:28 00:06
Maximum _ 1,8 C 3,9 C 93 % 1024,9 hPa 0,2 l/m 39,6 km/h
O (6 Bft)
- 0,08 h 0,204 mm 1,6 UV-I 641 W/m -2,5 C -2,3 C 49,9 km/h
O-NO (6 Bft)
100,00 %
Durchschnitt _ -7,3 C 3,2 C 79 % 1010,8 hPa #0,4 l/m 14,2 km/h (3 Bft) O #40:41 h #7,443 mm 0,9 UV-I 221 W/m -10,4 C -14,3 C 18,9 km/h (3 Bft) 97,84 %